Powrót do katalogu

STARLINK-6207

AktywnyŁącznośćVLEO
NORAD 56900·PAYLOAD·🇺🇸 United States

Wystrzelony Jun 12, 2023 z Cape Canaveral Space Force Station

Loading…

Następne Przeloty (najbliższe 24 godziny)

TLE

ŚwieżeSource: CelesTrak SupGP

Epoka: Sep 15, 2026, 02:25 UTC

1 56900C 23083AA  26258.10118056 -.00006654  00000+0 -24099-3 0  2588
2 56900  43.0028  81.3249 0002224 273.3240  38.3591 15.27584705    11

Śledź STARLINK-6207 w czasie rzeczywistym z AllMySat

Download on the App Store